Location: Helsinki
(60.1699°N, 24.9384°E)
Time: 20:00:55
(UTC+02:00)

Transit 2A Rocket - Pass Details

Date: 26 September 2023
Orbit: 593 x 903 km, 66.7° (Epoch: 28 November)

Event Time Altitude Azimuth Distance (km) Brightness Sun altitude
Rises 16:26:56 0° 214° (SW) 3,294 9.7 17.9°
Reaches altitude 10° 16:29:28 10° 211° (SSW) 2,318 9.0 17.7°
Maximum altitude 16:34:40 60° 133° (SE) 829 5.4 17.2°
Drops below altitude 10° 16:39:25 10° 54° (NE) 2,127 6.8 16.7°
Sets 16:41:39 0° 51° (NE) 3,001 7.4 16.5°
